St Catherine Internationa, Egypt

9:44 PM EET on July 21, 2017 (GMT +0200)
St Catherine Internationa

Weather History for HESC - August, 2014

Change the Weather History Date:

Tuesday, August 19, 2014

  Actual Average Record
Temperature  
Mean Temperature 78 °F -  
Max Temperature 89 °F - - ()
Min Temperature 68 °F - - ()
Cooling Degree Days 14    
Growing Degree Days 28 (Base 50)    
Moisture  
Dew Point 47 °F    
Average Humidity 35    
Maximum Humidity 52    
Minimum Humidity 17    
Precipitation  
Precipitation 0.00 in - - ()
Sea Level Pressure  
Sea Level Pressure 30.11 in    
Wind  
Wind Speed 5 mph ()    
Max Wind Speed 20 mph    
Max Gust Speed -    
Visibility 6.2 miles    
Events      
T = Trace of Precipitation, MM = Missing Value Source: Averaged Metar Reports

Daily Weather History Graph

Daily Weather History Graph

Search for Another Location

Airport or City:

Trip Planner

Search our weather history database for the weather conditions in past years. The results will help you decide how hot, cold, wet, or windy it might be!

Date:

Astronomy

Aug. 19, 2014 Rise Set
Actual Time 6:14 AM EEST 7:19 PM EEST
Civil Twilight 5:50 AM EEST 7:44 PM EEST
Nautical Twilight 5:21 AM EEST 8:13 PM EEST
Astronomical Twilight 4:51 AM EEST 8:43 PM EEST
Moon 12:58 AM EEST (8/19) 2:50 PM EEST (8/19)
Length of Visible Light 13h 53m
Length of Day
13h 04m
Waning Crescent, 32% of the Moon is Illuminated
Aug 19
Waning Crescent
Aug 25
New
Sep 2
First Quarter
Sep 9
Full
Sep 16
Last Quarter

Hourly Weather History & Observations

Time (EEST) Temp. Dew Point Humidity Pressure Visibility Wind Dir Wind Speed Gust Speed Precip Events Conditions
12:00 AM 73.4 °F 51.8 °F 47% 30.06 in - Calm Calm - N/A   Clear
1:00 AM 71.6 °F 51.8 °F 50% 30.06 in - Calm Calm - N/A   Clear
2:00 AM 71.6 °F 50.0 °F 46% 30.06 in - Calm Calm - N/A   Clear
3:00 AM 69.8 °F 50.0 °F 49% 30.06 in - Calm Calm - N/A   Clear
4:00 AM 68.0 °F 50.0 °F 52% 30.06 in - Calm Calm - N/A   Clear
5:00 AM 69.8 °F 50.0 °F 49% 30.09 in - Calm Calm - N/A   Clear
6:00 AM 68.0 °F 50.0 °F 52% 30.09 in - Calm Calm - N/A   Clear
7:00 AM 69.8 °F 50.0 °F 49% 30.12 in - Calm Calm - N/A   Clear
8:00 AM 75.2 °F 53.6 °F 47% 30.12 in - Calm Calm - N/A   Clear
9:00 AM 78.8 °F 53.6 °F 42% 30.12 in - South 6.9 mph - N/A   Clear
10:00 AM 82.4 °F 51.8 °F 35% 30.09 in - Calm Calm - N/A   Clear
11:00 AM 86.0 °F 42.8 °F 22% 30.15 in - West 11.5 mph - N/A   Clear
12:00 PM 87.8 °F 41.0 °F 19% 30.15 in - West 16.1 mph - N/A   Clear
1:00 PM 89.6 °F 39.2 °F 17% 30.15 in - SSW 13.8 mph - N/A   Clear
2:00 PM 89.6 °F 41.0 °F 18% 30.12 in - SW 15.0 mph - N/A   Clear
3:00 PM 89.6 °F 44.6 °F 21% 30.12 in 6.2 mi West 17.3 mph - N/A   Partly Cloudy
4:00 PM 87.8 °F 42.8 °F 21% 30.12 in 6.2 mi WNW 19.6 mph - N/A   Scattered Clouds
5:00 PM 87.8 °F 42.8 °F 21% 30.12 in 6.2 mi WNW 15.0 mph - N/A   Partly Cloudy
6:00 PM 86.0 °F 42.8 °F 22% 30.12 in 6.2 mi WNW 16.1 mph - N/A   Partly Cloudy
7:00 PM 84.2 °F 42.8 °F 23% 30.12 in - West 18.4 mph - N/A   Clear
8:00 PM 82.4 °F 44.6 °F 26% 30.12 in - West 13.8 mph - N/A   Clear
9:00 PM 82.4 °F 46.4 °F 28% 30.15 in - WNW 11.5 mph - N/A   Clear
10:00 PM 78.8 °F 50.0 °F 36% 30.18 in - NW 11.5 mph - N/A   Clear
11:00 PM 77.0 °F 53.6 °F 44% 30.18 in - Calm Calm - N/A   Clear